Regional Weather Roundup
Issued by NWS

Home | Current Version | Previous Version | Graphics & Text | Print | Product List | Glossary On
Versions: 1 2 3 4 5 6 7 8 9 10 11 12 13 14 15 16 17 18 19 20 21 22 23 24 25 26 27 28 29 30 31 32 33 34 35 36 37 38 39 40 41 42 43 44 45 46 47 48 49 50
988
ASUS43 KBIS 250631
RWRND
NORTH DAKOTA REGIONAL WEATHER ROUNDUP
NATIONAL WEATHER SERVICE EASTERN NORTH DAKOTA/GRAND FORKS ND
100 AM CDT SUN JUN 25 2017

  NOTE: "FAIR" INDICATES FEW OR NO CLOUDS BELOW 12,000 FEET WITH NO
  SIGNIFICANT WEATHER AND/OR OBSTRUCTIONS TO VISIBILITY.

NDZ001>003-009>011-017-250700-
...NORTHWEST NORTH DAKOTA...

CITY           SKY/WX    TMP DP  RH WIND       PRES   REMARKS
WILLISTON      FAIR      52  39  61 CALM      30.27S
6HR MIN TEMP:  47; 6HR MAX TEMP:  70;

MINOT          FAIR      47  40  76 SW9       30.24F
MINOT AFB      FAIR      40  37  88 CALM      30.23F
6HR MIN TEMP:  40; 6HR MAX TEMP:  62;

$$

NDZ018>021-031>035-040>046-250700-
...SOUTHWEST NORTH DAKOTA...

CITY           SKY/WX    TMP DP  RH WIND       PRES   REMARKS
BISMARCK       FAIR      48  41  76 W6        30.30R
DICKINSON      FAIR      40  32  73 S7        30.29F
GARRISON         N/A     40  36  86 CALM      30.26F
HETTINGER      FAIR      38  30  73 CALM      30.34S
$$

NDZ004>008-012>016-024-026-027-054-250700-
...NORTHEAST NORTH DAKOTA...

CITY           SKY/WX    TMP DP  RH WIND       PRES   REMARKS
GRAND FORKS    MOCLDY    50  45  83 NW8       30.18R
GRAND FORKS AF FAIR      47  42  81 NW8       30.20R
DEVILS LAKE    FAIR      45  43  93 NW8       30.24S
$$

NDZ022-023-025-028>030-036>039-047>053-250700-
...SOUTHEAST NORTH DAKOTA...

CITY           SKY/WX    TMP DP  RH WIND       PRES   REMARKS
JAMESTOWN      MOCLDY    50  46  86 NW10      30.23S
FARGO          CLOUDY    53  44  71 NW13      30.18S
WAHPETON       MOCLDY    46  39  76 NW8       30.19S
$$




USA.gov is the U.S. government's official web portal to all federal, state and local government web resources and services.